OSCAR 3 1 01293U 65016F 12037.08181474 .00000315 00000-0 22839-3 0 2875 2 01293 070.0729 247.8075 0019159 315.8937 044.0642 14.05054824395185 OSCAR 5 1 04321U 70008B 12035.94974182 -.00000031 +00000-0 +10000-3 0 06064 2 04321 102.0425 077.5446 0027467 316.1007 043.7881 12.52165534921268 OSCAR 6 1 06236U 72082B 12035.91985615 -.00000027 +00000-0 +10000-3 0 05834 2 06236 101.4285 025.9712 0003763 165.3021 194.8164 12.53091276797993 OSCAR 7 1 07530U 74089B 12036.98726830 -.00000027 00000-0 10000-3 0 2995 2 07530 101.3982 039.3264 0011694 181.1157 178.9882 12.53587381703481 OSCAR 8 1 10703U 78026B 12037.50592429 -.00000149 00000-0 -74409-4 0 4127 2 10703 098.7242 056.1213 0007316 014.9703 345.1675 13.98934685730843 OSCAR 10 1 14129U 83058B 12033.35296073 -.00000415 +00000-0 +10000-3 0 09462 2 14129 027.2387 354.3087 6029644 132.7783 297.0265 02.05867200187423 OSCAR 11 (UoSAT 2) 1 14781U 84021B 12037.31776733 .00000296 00000-0 45700-4 0 7812 2 14781 097.9743 097.8927 0010026 099.9963 260.2380 14.80300796500428 OSCAR 16 (PACSAT) 1 20439U 90005D 12037.38104303 .00000117 00000-0 59447-4 0 3904 2 20439 098.4144 344.5482 0010561 185.3348 174.7721 14.32014744151135 OSCAR 17 (DOVE) 1 20440U 90005E 12037.52404378 .00000105 00000-0 54633-4 0 1184 2 20440 098.3912 347.0808 0010683 176.4606 183.6650 14.32335491151328 OSCAR 18 (WEBERSAT) 1 20441U 90005F 12035.87286951 +.00000131 +00000-0 +64368-4 0 06300 2 20441 098.3973 344.6073 0011077 187.6478 172.4536 14.32078831150995 OSCAR 19 (LUSAT) 1 20442U 90005G 12036.86527661 .00000038 00000-0 29636-4 0 3130 2 20442 098.3795 347.5265 0011557 179.4125 180.7071 14.32235205151249 JAS 1B (FUJI 2) 1 20480U 90013C 12037.21569416 -.00000008 00000-0 47228-4 0 171 2 20480 099.0633 151.5373 0540667 146.5397 217.1121 12.83375558 30560 COSMOS 2123 1 21089U 91007A 12037.21034914 .00000024 00000-0 87745-5 0 122 2 21089 082.9228 271.1712 0029215 160.9631 199.2625 13.74521273 53624 OSCAR 22 (UoSAT 5) 1 21575U 91050B 12035.91736632 +.00000134 +00000-0 +56691-4 0 03570 2 21575 098.5757 353.4694 0007960 023.7473 336.4075 14.39920088079238 OSCAR 23 (KITSAT 1) 1 22077U 92052B 12036.65995368 -.00000037 00000-0 10000-3 0 2908 2 22077 066.0866 108.7886 0013239 234.6196 125.3586 12.86465386915452 KITSAT B 1 22825U 93061C 12037.51132664 .00000050 00000-0 36448-4 0 253 2 22825 098.5604 342.4727 0007842 311.0298 049.0200 14.29427368957661 POSAT 1 1 22826U 93061D 12037.18733551 .00000094 00000-0 53565-4 0 7736 2 22826 098.5549 342.5610 0008420 306.5036 053.5372 14.29697824957749 ITAMSAT 1 22828U 93061F 12037.51532571 .00000046 00000-0 34632-4 0 9715 2 22828 098.5478 342.5334 0009028 273.6929 086.3216 14.29972898926097 EYESAT A 1 22829U 93061G 12036.94919095 .00000049 00000-0 35425-4 0 9895 2 22829 098.5446 343.2927 0008939 269.9365 090.0792 14.30380793958063 RADIO ROSTO 1 23439U 94085A 12035.81354978 -.00000039 +00000-0 +10000-3 0 05086 2 23439 064.8190 147.9909 0166374 241.3208 117.0902 11.27556670704659 JAS 2 1 24278U 96046B 12036.88853354 -.00000089 00000-0 -53761-4 0 7706 2 24278 098.5754 154.9175 0350878 011.9859 348.9366 13.52976242764062 TMSAT 1 25396U 98043C 12037.01281972 .00000070 00000-0 48380-4 0 2001 2 25396 098.3267 027.9557 0002112 307.5068 052.5917 14.23904176705459 TECHSAT 1B 1 25397U 98043D 12036.59900617 -.00000092 00000-0 -22541-4 0 6964 2 25397 098.3491 021.9333 0001036 358.5509 001.5669 14.23255319705169 SEDSAT 1 1 25509U 98061B 12036.92774282 .00000154 00000-0 18940-4 0 1604 2 25509 031.4327 002.0892 0352616 126.1290 237.2490 14.28663789693726 PAN SAT 1 25520U 98064B 12036.97710565 .00001915 00000-0 79423-4 0 9291 2 25520 028.4600 275.9347 0005036 020.0487 340.0310 15.19132514735231 ISS (ZARYA) 1 25544U 98067A 12037.58861690 .00009544 00000-0 12695-3 0 9589 2 25544 051.6422 062.1565 0020255 013.6755 127.2191 15.58718309757490 OSCAR 36 (UOSAT 12) 1 25693U 99021A 12037.44690178 .00000175 00000-0 42680-4 0 7432 2 25693 064.5578 032.8531 0038397 231.1825 128.5853 14.79135027690439 OPAL 1 26063U 00004C 12035.98517758 +.00000107 +00000-0 +56511-4 0 03200 2 26063 100.2169 013.1805 0037117 070.0562 290.4611 14.36046550630124 SAUDISAT 1A 1 26545U 00057A 12037.20549557 .00000568 00000-0 90491-4 0 654 2 26545 064.5561 026.1573 0034158 329.2908 030.6197 14.81354974613944 TIUNGSAT 1 1 26548U 00057D 12035.92722007 +.00000747 +00000-0 +10555-3 0 02526 2 26548 064.5534 339.7001 0034024 316.8177 043.0259 14.84374772614789 SAUDISAT 1B 1 26549U 00057E 12037.24359921 .00000467 00000-0 79729-4 0 1566 2 26549 064.5528 048.0687 0034538 337.4124 022.5458 14.80168633613509 AMSAT OSCAR 40 1 26609U 00072B 12035.84632878 -.00000088 00000-0 10000-3 0 6290 2 26609 007.0145 224.0741 7925726 161.2310 267.8294 01.25585777 51724 PCSAT 1 26931U 01043C 12036.62260504 .00000181 00000-0 10239-3 0 9624 2 26931 067.0532 101.9915 0006074 279.9226 080.1191 14.29757786540292 SAPPHIRE 1 26932U 01043D 12036.63499353 -.00000034 00000-0 19023-4 0 9722 2 26932 067.0568 102.2796 0004678 294.1303 065.9330 14.29750494540347 RUBIN 2 1 27605U 02058A 12037.37480121 .00000352 00000-0 73314-4 0 6948 2 27605 064.5598 318.7452 0084815 274.6005 084.5413 14.72903998490919 SAUDISAT 1C 1 27607U 02058C 12037.19266621 .00000628 00000-0 11564-3 0 6817 2 27607 064.5601 336.3699 0085120 274.3673 084.7690 14.72203295490533 MOZHAYETS 4 1 27939U 03042A 12037.42590330 .00000470 00000-0 98327-4 0 588 2 27939 097.8226 244.9201 0013028 327.1574 032.8826 14.63891523446602 AMSAT ECHO 1 28375U 04025K 12037.42115585 .00000162 00000-0 60840-4 0 1870 2 28375 098.1284 008.9554 0084648 079.8324 281.2405 14.40891582399794 HAMSAT 1 28650U 05017B 12037.53481747 .00001135 00000-0 14612-3 0 185 2 28650 097.6148 074.8549 0027727 112.5544 247.8636 14.82660475365465 SSETI-EXPRESS 1 28894U 05043E 12036.86918731 .00000214 00000-0 53673-4 0 2963 2 28894 097.9275 267.5126 0016832 207.1025 152.9297 14.60015158334442 MOZ.5/SAFIR/RUBIN 5/SL-8 1 28898U 05043G 12037.21740102 .00000186 00000-0 48973-4 0 1281 2 28898 097.9115 261.0567 0017879 221.3045 138.6803 14.58872320334239 SUITSAT (Decayed 2006-09-07) 1 28933U 05035C 06250.56263144 .13300754 00000-0 18638-3 0 4012 2 28933 051.6150 101.2534 0006572 313.0977 047.0289 16.48585101 34276 CUTE 1.7 (Decayed 2009-10-25) 1 28941U 06005C 09297.68475575 .14491492 29743-5 25760-3 0 5565 2 28941 098.0955 138.9518 0011688 319.8691 040.7485 16.46998778207909 HITSAT (Decayed 2008-06-18) 1 29484U 06041F 08170.27591928 .21901596 31637-5 19690-3 0 4662 2 29484 098.2496 292.5583 0013872 275.6258 084.5236 16.51113477 98738 RAFT (Decayed 2007-05-30) 1 29661U 06055C 07150.05824307 .13324117 12618-4 10400-3 0 3000 2 29661 051.6186 176.5045 0007204 190.7749 188.7342 16.52052832 25544 MARSCOM (Decayed 2007-05-06) 1 29662U 06055D 07126.39603970 .07031946 12599-4 11450-3 0 2632 2 29662 051.6121 302.3682 0004459 252.1654 110.7411 16.47981436 21652 ANDE MAA SPHERE 1 (Decayed 2007-12-25) 1 29664U 06055F 07359.16654419 .14620719 12705-4 12723-3 0 7381 2 29664 051.6179 150.0690 0003189 248.8461 111.8136 16.51627846 58777 ANDE FCAL SPHERE 2 (Decayed 2008-05-25) 1 29667U 06055J 08146.34060426 .11864717 12752-4 73624-4 0 9790 2 29667 051.6107 065.3702 0009039 260.8350 099.5042 16.53464210 82911 PEHUENSAT 1 1 29712U 07001D 12037.55059656 .00003472 00000-0 42003-3 0 7854 2 29712 097.7109 080.2534 0013294 012.7281 347.4280 14.84256828274265 DELFI C3 1 32789U 08021G 12037.38660653 .00002356 00000-0 28269-3 0 2225 2 32789 097.8309 103.4650 0015957 127.8941 232.3721 14.84888596204316 YUBILEINY 1 32953U 08025A 12037.45002424 .00000010 00000-0 00000+0 0 4974 2 32953 082.5023 017.0526 0017450 234.3800 125.5658 12.43020656168198 PRISM (HITOMI) 1 33493U 09002B 12037.40011589 .00002017 00000-0 25348-3 0 3982 2 33493 098.1488 175.0545 0019158 007.5901 352.5611 14.83157671164215 STARS (KUKAI) 1 33498U 09002G 12037.18511166 .00001134 00000-0 18623-3 0 6371 2 33498 098.0981 153.7291 0013565 129.2796 230.9607 14.72531123163093 KKS-1 (KISEKI) 1 33499U 09002H 12036.84600623 .00000581 00000-0 10165-3 0 6515 2 33499 098.0997 152.2948 0010933 130.7046 229.5092 14.71505954162964 ANDE CASTOR SPHERE (Decayed 2010-08-18) 1 35694U 09038F 10230.44082147 .07179566 12689-4 99310-4 0 6559 2 35694 051.5930 222.0149 0004218 308.0851 053.0105 16.48877011 61107 SUMBANDILA 1 35870U 09049F 12037.47497743 .00003298 00000-0 14432-3 0 6562 2 35870 097.2515 077.8393 0000653 318.1735 158.9991 15.22719403132566 XIWANG-1 (HOPE-1) 1 36122U 09072B 12037.19049335 -.00000044 00000-0 00000+0 0 1742 2 36122 100.3809 099.1084 0007704 052.5136 307.6685 13.16293035103022 RADIOSCAF-B (KEDR) (Decayed 2012-01-04) 1 37772U 98067CK 12004.04884568 .13494171 12416-4 77857-3 0 4794 2 37772 051.6129 213.1240 0007478 255.9283 104.1611 16.41716225 24077